When you browse on this site, cookies collect data to enhance your experience and personalize the content and advertising you see.
Visit our Privacy Policy to learn more. By continuing to use the site, you agree to this use of cookies and data.
  • In Norway
  • List of Countries
  • For 7 days
  • Water Temperature
  • Satellite Maps
  • Weather Map
  • Weather Widgets
  • user-avatar
    Login

    Hourly Weather Townsville

    Today, 20 June, Thursday

    Time Temperature Precipitation Wind Pressure Humidity
    00:00 +15°C° 0 mm 2 mps 756 mmHg 73%
    01:00 +14°C° 0 mm 3 mps 756 mmHg 74%
    02:00 +15°C° 0 mm 2 mps 756 mmHg 75%
    03:00 +14°C° 0 mm 2 mps 756 mmHg 76%
    04:00 +14°C° 0 mm 2 mps 756 mmHg 79%
    05:00 +14°C° 0 mm 2 mps 756 mmHg 78%
    06:00 +14°C° 0 mm 2 mps 756 mmHg 78%
    07:00 +14°C° 0 mm 2 mps 757 mmHg 77%
    08:00 +16°C° 0 mm 2 mps 757 mmHg 67%
    09:00 +18°C° 0 mm 2 mps 757 mmHg 57%
    10:00 +21°C° 0 mm 2 mps 757 mmHg 47%
    11:00 +23°C° 0 mm 2 mps 757 mmHg 44%
    12:00 +24°C° 0 mm 2 mps 756 mmHg 40%
    13:00 +25°C° 0 mm 3 mps 756 mmHg 37%
    14:00 +25°C° 0 mm 3 mps 755 mmHg 39%
    15:00 +24°C° 0 mm 3 mps 755 mmHg 42%
    16:00 +23°C° 0 mm 4 mps 755 mmHg 44%
    17:00 +21°C° 0 mm 3 mps 755 mmHg 52%
    18:00 +19°C° 0 mm 2 mps 756 mmHg 60%
    19:00 +18°C° 0 mm 1 mps 756 mmHg 69%
    20:00 +18°C° 0 mm 1 mps 757 mmHg 69%
    21:00 +16°C° 0 mm 2 mps 757 mmHg 69%
    22:00 +16°C° 0 mm 2 mps 757 mmHg 69%
    23:00 +16°C° 0 mm 2 mps 757 mmHg 67%

    Tomorrow, 21 June, Friday

    Time Temperature Precipitation Wind Pressure Humidity
    00:00 +15°C° 0 mm 2 mps 757 mmHg 65%
    01:00 +15°C° 0 mm 2 mps 756 mmHg 64%
    02:00 +15°C° 0 mm 2 mps 756 mmHg 65%
    03:00 +14°C° 0 mm 2 mps 756 mmHg 67%
    04:00 +14°C° 0 mm 2 mps 756 mmHg 68%
    05:00 +14°C° 0 mm 2 mps 756 mmHg 68%
    06:00 +14°C° 0 mm 2 mps 756 mmHg 67%
    07:00 +12°C° 0 mm 3 mps 756 mmHg 66%
    08:00 +16°C° 0 mm 3 mps 757 mmHg 59%
    09:00 +18°C° 0 mm 3 mps 757 mmHg 52%
    10:00 +21°C° 0 mm 3 mps 757 mmHg 45%
    11:00 +22°C° 0 mm 3 mps 757 mmHg 42%
    12:00 +24°C° 0 mm 3 mps 756 mmHg 39%
    13:00 +25°C° 0 mm 3 mps 755 mmHg 36%
    14:00 +25°C° 0 mm 3 mps 755 mmHg 36%
    15:00 +25°C° 0 mm 3 mps 755 mmHg 36%
    16:00 +25°C° 0 mm 3 mps 755 mmHg 37%
    17:00 +22°C° 0 mm 3 mps 755 mmHg 42%
    18:00 +20°C° 0 mm 4 mps 756 mmHg 46%
    19:00 +18°C° 0 mm 4 mps 756 mmHg 51%
    20:00 +17°C° 0 mm 4 mps 756 mmHg 53%
    21:00 +16°C° 0 mm 3 mps 757 mmHg 54%
    22:00 +16°C° 0 mm 3 mps 757 mmHg 55%
    23:00 +14°C° 0 mm 3 mps 757 mmHg 56%

    Day after tomorrow, 22 June, Saturday

    Time Temperature Precipitation Wind Pressure Humidity
    00:00 +14°C° 0 mm 3 mps 757 mmHg 57%
    01:00 +13°C° 0 mm 3 mps 756 mmHg 58%
    02:00 +13°C° 0 mm 3 mps 756 mmHg 59%
    03:00 +12°C° 0 mm 3 mps 756 mmHg 60%
    04:00 +12°C° 0 mm 3 mps 756 mmHg 62%
    05:00 +12°C° 0 mm 3 mps 756 mmHg 62%
    06:00 +11°C° 0 mm 3 mps 756 mmHg 62%
    07:00 +11°C° 0 mm 4 mps 757 mmHg 62%
    08:00 +13°C° 0 mm 3 mps 757 mmHg 54%
    09:00 +17°C° 0 mm 3 mps 757 mmHg 46%
    10:00 +19°C° 0 mm 3 mps 757 mmHg 38%
    11:00 +20°C° 0 mm 3 mps 756 mmHg 34%
    12:00 +21°C° 0 mm 3 mps 756 mmHg 31%
    13:00 +24°C° 0 mm 2 mps 755 mmHg 28%
    14:00 +23°C° 0 mm 2 mps 755 mmHg 29%
    15:00 +22°C° 0 mm 3 mps 755 mmHg 31%
    16:00 +22°C° 0 mm 3 mps 754 mmHg 33%
    17:00 +20°C° 0 mm 3 mps 755 mmHg 38%
    18:00 +18°C° 0 mm 2 mps 755 mmHg 43%
    19:00 +16°C° 0 mm 2 mps 756 mmHg 48%
    20:00 +15°C° 0 mm 2 mps 756 mmHg 46%
    21:00 +14°C° 0 mm 3 mps 756 mmHg 43%
    22:00 +13°C° 0 mm 3 mps 757 mmHg 41%
    23:00 +12°C° 0 mm 3 mps 757 mmHg 41%

    23 June, Sunday

    Time Temperature Precipitation Wind Pressure Humidity
    00:00 +12°C° 0 mm 3 mps 756 mmHg 40%
    01:00 +12°C° 0 mm 3 mps 756 mmHg 39%
    02:00 +12°C° 0 mm 3 mps 756 mmHg 40%
    03:00 +11°C° 0 mm 3 mps 756 mmHg 40%
    04:00 +11°C° 0 mm 3 mps 755 mmHg 41%
    05:00 +11°C° 0 mm 3 mps 756 mmHg 42%
    06:00 +11°C° 0 mm 3 mps 756 mmHg 44%
    07:00 +10°C° 0 mm 3 mps 756 mmHg 46%
    08:00 +13°C° 0 mm 3 mps 756 mmHg 44%
    09:00 +17°C° 0 mm 3 mps 756 mmHg 42%
    10:00 +19°C° 0 mm 3 mps 756 mmHg 41%
    11:00 +21°C° 0 mm 3 mps 756 mmHg 43%
    12:00 +24°C° 0 mm 2 mps 755 mmHg 45%
    13:00 +25°C° 0 mm 2 mps 754 mmHg 47%
    14:00 +25°C° 0 mm 2 mps 754 mmHg 49%
    15:00 +25°C° 0 mm 3 mps 754 mmHg 51%
    16:00 +25°C° 0 mm 3 mps 754 mmHg 53%
    17:00 +22°C° 0 mm 3 mps 754 mmHg 60%
    18:00 +21°C° 0 mm 3 mps 755 mmHg 67%
    19:00 +19°C° 0 mm 3 mps 755 mmHg 73%
    20:00 +19°C° 0 mm 3 mps 755 mmHg 74%
    21:00 +18°C° 0 mm 3 mps 756 mmHg 75%
    22:00 +18°C° 0 mm 3 mps 756 mmHg 76%
    23:00 +17°C° 0 mm 3 mps 756 mmHg 77%

    24 June, Monday

    Time Temperature Precipitation Wind Pressure Humidity
    00:00 +17°C° 0 mm 3 mps 756 mmHg 78%
    01:00 +16°C° 0 mm 3 mps 756 mmHg 79%
    02:00 +16°C° 0 mm 3 mps 756 mmHg 82%
    03:00 +14°C° 0 mm 3 mps 755 mmHg 84%
    04:00 +14°C° 0 mm 3 mps 755 mmHg 86%
    05:00 +14°C° 0 mm 3 mps 756 mmHg 88%
    06:00 +14°C° 0 mm 3 mps 756 mmHg 89%
    07:00 +14°C° 0 mm 3 mps 757 mmHg 90%
    08:00 +17°C° 0 mm 3 mps 757 mmHg 80%
    09:00 +19°C° 0 mm 3 mps 757 mmHg 71%
    10:00 +22°C° 0 mm 3 mps 758 mmHg 61%
    11:00 +24°C° 0 mm 3 mps 757 mmHg 58%
    12:00 +25°C° 0 mm 4 mps 757 mmHg 55%
    13:00 +25°C° 0 mm 4 mps 756 mmHg 52%
    14:00 +25°C° 0 mm 4 mps 756 mmHg 55%
    15:00 +23°C° 0 mm 4 mps 756 mmHg 58%
    16:00 +23°C° 0 mm 4 mps 756 mmHg 61%
    17:00 +22°C° 0 mm 4 mps 756 mmHg 65%
    18:00 +21°C° 0 mm 4 mps 757 mmHg 69%
    19:00 +20°C° 0 mm 5 mps 757 mmHg 72%
    20:00 +20°C° 0.1 mm 5 mps 758 mmHg 73%
    21:00 +20°C° 0.1 mm 5 mps 758 mmHg 73%
    22:00 +19°C° 0.1 mm 6 mps 758 mmHg 74%
    23:00 +19°C° 0 mm 5 mps 758 mmHg 73%

    25 June, Tuesday

    Time Temperature Precipitation Wind Pressure Humidity
    00:00 +17°C° 0 mm 5 mps 758 mmHg 72%
    01:00 +16°C° 0 mm 5 mps 758 mmHg 72%
    02:00 +15°C° 0 mm 4 mps 758 mmHg 70%
    03:00 +15°C° 0 mm 4 mps 758 mmHg 68%
    04:00 +14°C° 0 mm 4 mps 757 mmHg 66%
    05:00 +14°C° 0 mm 4 mps 758 mmHg 65%
    06:00 +13°C° 0 mm 4 mps 758 mmHg 64%
    07:00 +12°C° 0 mm 3 mps 759 mmHg 64%
    08:00 +16°C° 0 mm 3 mps 759 mmHg 58%
    09:00 +18°C° 0 mm 3 mps 759 mmHg 52%
    10:00 +21°C° 0 mm 3 mps 759 mmHg 47%
    11:00 +22°C° 0 mm 3 mps 758 mmHg 45%
    12:00 +24°C° 0 mm 3 mps 757 mmHg 43%
    13:00 +25°C° 0 mm 3 mps 757 mmHg 41%
    14:00 +25°C° 0 mm 3 mps 757 mmHg 43%
    15:00 +24°C° 0 mm 3 mps 756 mmHg 46%
    16:00 +24°C° 0 mm 3 mps 756 mmHg 48%
    17:00 +21°C° 0 mm 3 mps 756 mmHg 58%
    18:00 +20°C° 0 mm 3 mps 757 mmHg 69%
    19:00 +18°C° 0 mm 3 mps 757 mmHg 79%
    20:00 +17°C° 0.1 mm 3 mps 757 mmHg 80%
    21:00 +17°C° 0.1 mm 3 mps 757 mmHg 81%
    22:00 +17°C° 0.1 mm 3 mps 758 mmHg 82%
    23:00 +17°C° 0.1 mm 3 mps 758 mmHg 82%
    Show more